Inquirer Daily News

Weather

Get conditions and forecasts for any City, State, ZIP code or Country:  
Northeast Philadelphia, PA
on Friday, January 18, 2013

Friday
Previous Day Next Day
Daily Summary
 ActualAverage (KTTN)Record (KTTN)
Temperature
Mean Temperature °F 31°F  
Max Temperature 37°F 39°F 64°F (2006)
Min Temperature 28°F 23°F -4°F (1893)
Degree Days
Heating Degree Days 32 34  
Month to date heating degree days 611  
Since 1 July heating degree days 2506  
Cooling Degree Days 0 0  
Month to date cooling degree days 0  
Year to date cooling degree days 0  
Moisture
Dew Point 14°F   
Average Humidity 51    
Maximum Humidity 76    
Minimum Humidity 37    
Precipitation
Precipitation 0.00 in 0.09 in 1.30 in (1999)
Month to date precipitation 1.89  
Year to date precipitation 1.89  
Wind
Wind Speed 8 mph   
Max Wind Speed 21 mph   
Max Gust Speed 28 mph   
Visibility 10 miles   
Events Rain   

Key: T is trace of precipitation, MM is missing value
Source: NWS Daily Summary
Time(EST)TemperatureDew PointHumidity Pressure Visibility Wind DirectionWind SpeedGust SpeedPrecipitationEvents Conditions
12:54 AM 37.0°F 28.0°F 70% 30.06 in 10.0 miles North 3.5 mph - N/A   Clear
1:54 AM 36.0°F 28.0°F 73% 30.08 in 10.0 miles NNW 3.5 mph - N/A   Clear
2:54 AM 36.0°F 28.0°F 73% 30.10 in 10.0 miles Calm Calm - N/A   Overcast
3:54 AM 35.1°F 28.0°F 76% 30.11 in 10.0 miles NNW 8.1 mph - N/A   Mostly Cloudy
4:54 AM 34.0°F 25.0°F 70% 30.14 in 10.0 miles North 6.9 mph - N/A   Overcast
5:54 AM 34.0°F 23.0°F 64% 30.20 in 10.0 miles North 13.8 mph - 0.00 in Rain Light Rain
6:54 AM 30.9°F 17.1°F 57% 30.28 in 10.0 miles NNW 20.7 mph 27.6 mph 0.00 in   Overcast
7:54 AM 28.9°F 12.9°F 51% 30.35 in 10.0 miles North 12.7 mph 27.6 mph N/A   Clear
8:54 AM 28.9°F 10.0°F 45% 30.41 in 10.0 miles North 19.6 mph 27.6 mph N/A   Clear
9:54 AM 30.0°F 9.0°F 41% 30.45 in 10.0 miles NNW 15.0 mph 21.9 mph N/A   Clear
10:54 AM 30.0°F 9.0°F 41% 30.48 in 10.0 miles NNW 19.6 mph 26.5 mph N/A   Mostly Cloudy
11:54 AM 30.0°F 8.1°F 40% 30.47 in 10.0 miles NNW 11.5 mph 19.6 mph N/A   Clear
12:54 PM 32.0°F 9.0°F 38% 30.45 in 10.0 miles NNW 10.4 mph 20.7 mph N/A   Clear
1:54 PM 32.0°F 9.0°F 38% 30.46 in 10.0 miles NNW 10.4 mph - N/A   Clear
2:54 PM 32.0°F 8.1°F 37% 30.47 in 10.0 miles North 10.4 mph - N/A   Clear
3:54 PM 30.9°F 8.1°F 38% 30.48 in 10.0 miles West 6.9 mph - N/A   Clear
4:54 PM 30.0°F 8.1°F 40% 30.50 in 10.0 miles WNW 8.1 mph - N/A   Clear
5:54 PM 28.9°F 9.0°F 43% 30.50 in 10.0 miles WNW 3.5 mph - N/A   Clear
6:54 PM 28.0°F 10.9°F 49% 30.52 in 10.0 miles SW 3.5 mph - N/A   Clear
7:54 PM 28.9°F 9.0°F 43% 30.51 in 10.0 miles SW 4.6 mph - N/A   Clear
8:54 PM 28.0°F 10.0°F 47% 30.50 in 10.0 miles Calm Calm - N/A   Clear
9:54 PM 28.9°F 10.9°F 47% 30.49 in 10.0 miles Calm Calm - N/A   Clear
10:54 PM 28.0°F 10.9°F 49% 30.46 in 10.0 miles Calm Calm - N/A   Clear
11:54 PM 28.0°F 10.9°F 49% 30.45 in 10.0 miles South 4.6 mph - N/A   Clear
Astronomy
Sunrise:07:18 AM (EST) Moon Rise:10:55 AM (EST)1/18
Sunset:05:02 PM (EST) Moon Set:No Moon Set/
Moon Phase
Jan. 18 Jan. 18 Jan. 26 Feb. 03 Feb. 10

Copyright © 2014 The Weather Underground, Inc.